Regional Weather Roundup
Issued by NWS Albany, NY

Home | Current Version | Previous Version | Text Only | Print | Product List | Glossary On
Versions: 1 2 3 4 5 6 7 8 9 10 11 12 13 14 15 16 17 18 19 20 21 22 23 24 25 26 27 28 29 30 31 32 33 34 35 36 37 38 39 40 41 42 43 44 45 46 47 48 49 50
000
ASUS41 KALY 230410
RWRALY

NEW YORK STATE HOURLY WEATHER ROUNDUP
NATIONAL WEATHER SERVICE ALBANY NY
1100 PM EST MON JAN 22 2018

NOTE: "FAIR" INDICATES FEW OR NO CLOUDS BELOW 12,000 FEET WITH NO
SIGNIFICANT WEATHER AND/OR NO OBSTRUCTIONS TO VISIBILITY.

NYZ032-033-038>043-046>054-057>066-NYZ062>081-082-084-230500-
EAST


CITY           SKY/WX    TMP DP  RH WIND       PRES   REMARKS
ALBANY         CLOUDY    38  34  85 S9        30.04F WCI  31
GLENS FALLS    CLOUDY    30  30 100 CALM      30.05F FOG
POUGHKEEPSIE   CLOUDY    38  36  92 CALM      30.06F FOG
NEWBURGH       FOG       39  39 100 SE7       30.07F VSB 1/2 WCI  34
MONTGOMERY     FOG       38  37  97 N5        30.06S VSB 3/4 WCI  34
WHITE PLAINS   FOG       38  38 100 E7        30.06F VSB 1/8 WCI  33
ISLIP          FOG       43  42  97 E3        30.07F VSB 1/16
NEW YORK CITY  FOG       37  35  92 NE10      30.08F VSB 1/8 WCI  30
CENTRAL PARK   FOG       38  38 100 E8        30.10S VSB 1/2 WCI  32
$$

NYZ005>009-017-018-044>046-055-056-230500-
CENTRAL


CITY           SKY/WX    TMP DP  RH WIND       PRES   REMARKS
FULTON         FAIR      42  38  85 SE8       29.80F
SYRACUSE       FAIR      37  37 100 E5        29.83F WCI  33
ROME           CLOUDY    38  36  92 E9        29.93F WCI  31
ELMIRA         FAIR      43  41  93 NE8       29.84F
BINGHAMTON     FAIR      40  38  93 SE12      29.89F WCI  33
MONTICELLO     LGT RAIN  35  35 100 E8        30.03R VSB 1/4 WCI  29
$$

NYZ026>034-041>043-087-230500-
NORTH


CITY           SKY/WX    TMP DP  RH WIND       PRES   REMARKS
WATERTOWN      MOCLDY    32  32 100 NE3       29.81F FOG
FORT DRUM      NOT AVBL
OGDENSBURG     MIX PCPN  25  24  95 E8        29.88F WCI  16
MASSENA        FRZ RAIN  24  23  96 NE17      29.92F WCI  11
SARANAC LAKE   CLOUDY    32  32 100 W3        29.86F
PLATTSBURGH    FRZ RAIN  31  29  92 SE18      29.97F WCI  19
$$

NYZ001>004-010>016-019>021-085-230500-
WEST


CITY           SKY/WX    TMP DP  RH WIND       PRES   REMARKS
NIAGARA FALLS  LGT RAIN  41  38  89 E5        29.67F FOG
BUFFALO        LGT RAIN  49  45  86 SE8       29.68F
DUNKIRK        RAIN      53  47  79 S22G36    29.65F
JAMESTOWN      CLOUDY    48  43  82 S8        29.70F
WELLSVILLE     CLOUDY    48  41  76 S12G22    29.77F
ROCHESTER      CLOUDY    51  43  74 S12       29.73F
PENN YAN       FAIR     N/A N/A N/A SW9       29.80F
$$

             KEY
       WCI = WIND CHILL INDEX
       VSB = VISIBILITY
       HX  = HEAT INDEX
$$



USA.gov is the U.S. government's official web portal to all federal, state and local government web resources and services.